Location: Central Falls
(41.8900°N, 71.3929°W)
Time: 05:15:45
(UTC+00:00)

Vanguard 3 - Pass Details

Date: 07 December 2023
Orbit: 508 x 3239 km, 33.4° (Epoch: 01 March)

Event Time Altitude Azimuth Distance (km) Brightness Sun altitude
Rises 23:54:26 0° 212° (SSW) 7,044 12.4 -29.0°
Reaches altitude 10° 00:00:35 10° 202° (SSW) 5,765 11.7 -30.1°
Maximum altitude 00:13:06 27° 154° (SSE) 3,669 10.2 -32.5°
Enters shadow 00:14:30 26° 145° (SE) 3,578 10.1 -32.7°
